Location: Krakow
(50.0830°N, 19.9170°E)
Time: 09:51:36
(UTC+01:00)

Transit 2A - Pass Details

Date: 14 February 2023
Orbit: 591 x 964 km, 66.7° (Epoch: 21 March)

Event Time Altitude Azimuth Distance (km) Brightness Sun altitude
Rises 19:44:07 0° 317° (NW) 3,401 10.2 -27.3°
Reaches altitude 10° 19:47:14 10° 334° (NNW) 2,530 9.1 -27.8°
Enters shadow 19:51:26 20° 20° (NNE) 1,981 8.0 -28.5°
Maximum altitude 19:51:31 20° 21° (NNE) 1,982 - -28.5°
Drops below altitude 10° 19:55:58 10° 67° (ENE) 2,662 - -29.2°
Sets 19:59:21 0° 83° (E) 3,636 - -29.7°
